OneWeb SL0448

operational
NORAD ID: 51641 Int'l Des: 2022-012 Owner: ONEWEBN Country: UK Constellation: oneweb
LEOCIRCULARPOLARONEWEB_TYPE

关于 OneWeb SL0448

正在加载描述...

实时位置

正在加载3D地球...

即将过境

高度历史

Altitude vs Time

uPlot chart will show altitude changes over time

两行轨道根数

1 51641U 22012V 25260.57939639 .00000032 00000-0 56407-4 0 9991
2 51641 87.8742 90.6528 0001658 85.0053 275.1264 13.10375770173592
Epoch: Sep 17, 2025 • Age: 17 hours

当前状态

高度 1224.3 km
速度 7.24 km/s
星下点 24.80°N, 164.25°E
发射日期 Feb 10, 2022
运行时间 3.6 years
类型 internet

技术详情

分类 Payload
质量 148.00 kg
干质量 140.00 kg
总质量 148.00 kg
长度 1.30 m
直径 1.00 m
跨度 5.00 m
形状 Trapezoid+2 pan
制造商 ONEWUS
平台类型 ARROW
阶段状态 In Orbit
所有者/国家 ONEWEBN/UK

大型星座

Loading constellations...